Location: Paddlesworth
(51.1000°N, 1.1333°E)
Time: 08:28:25
(UTC+00:00)

USA 281 - Pass Details

Date: 11 May 2021
Orbit: 1078 x 1081 km, 106.0° (Epoch: 18 June)

Event Time Altitude Azimuth Distance (km) Brightness Sun altitude
Exits shadow 23:36:55 - 115° (ESE) 3,308 5.5 -20.7°
Reaches altitude 10° 23:38:02 10° 111° (ESE) 2,919 5.2 -20.7°
Maximum altitude 23:43:56 38° 47° (NE) 1,607 4.4 -20.7°
Drops below altitude 10° 23:49:52 10° 343° (NNW) 2,933 6.6 -20.8°
Sets 23:52:34 0° 335° (NNW) 3,893 7.3 -20.8°
